Home > Weather > Olongapo > Past weeks

Flag for Philippines Past Weather in Olongapo, Philippines — Yesterday and Last 2 Weeks

Now
81 °F

Passing clouds.


Feels Like: 87 °F
Forecast: 77 / 95 °F
Wind: 6 mph from East

Location: Subic Bay Weather Station

Current Time: Jul 28, 2016 at 5:15:01 AM

Latest Report: Jul 28, 2016 at 4:00 AM


Visibility: N/A

Pressure: 29.77 "Hg

Humidity: 89%

Dew Point: 77 °F

Location of OlongapoLocation

Past Weather in Olongapo — Graph

°F

Olongapo Temperature Yesterday

Maximum temperature yesterday: 91 °F (at 12:00 PM)
Minimum temperature yesterday: 79 °F (at 3:00 AM)
Average temperature yesterday: 85 °F

High & Low Weather Summary for the Past Weeks

 TemperatureHumidityPressure
High93 °F (Jul 20, 2:00 PM)94% (Jul 13, 4:00 AM)29.86 "Hg (Jul 13, 4:00 AM)
Low75 °F (Jul 13, 4:00 AM)52% (Jul 19, 11:00 AM)29.68 "Hg (Jul 24, 2:00 PM)
Average83 °F78%29.79 "Hg
* Reported Jul 13 4:00 AM — Jul 28 4:00 AM, Olongapo, Weather by CustomWeather, © 2016

Note: Actual official high and low records may vary slightly from our data, if they occured in-between our weather recording intervals... More about our weather records

Advertising

Olongapo Weather History for the Previous 24 Hours

Scroll right to see more
 ConditionsComfort  
Time TempWeatherWind HumidityBarometerVisibility
4:00 AM
Thu, Jul 28
81 °FPassing clouds.6 mph89%29.77 "HgN/A
3:00 AM81 °FPassing clouds.6 mph84%29.74 "HgN/A
2:00 AM81 °FPassing clouds.5 mph84%29.77 "HgN/A
1:00 AM79 °FPassing clouds.5 mph89%29.80 "HgN/A
12:00 AM81 °FPassing clouds.7 mph84%29.80 "HgN/A
11:00 PM
Wed, Jul 27
81 °FPassing clouds.7 mph84%29.83 "HgN/A
10:00 PM84 °FPassing clouds.7 mph74%29.83 "HgN/A
9:00 PM86 °FPassing clouds.3 mph75%29.80 "HgN/A
8:00 PM86 °FPassing clouds.6 mph75%29.80 "HgN/A
7:00 PM88 °FPassing clouds.6 mph70%29.77 "HgN/A
6:00 PM88 °FPartly sunny.6 mph70%29.74 "HgN/A
5:00 PM90 °FPartly sunny.7 mph67%29.74 "HgN/A
4:00 PM91 °FPartly sunny.5 mph63%29.74 "HgN/A
3:00 PM91 °FPartly sunny.7 mph63%29.74 "HgN/A
2:00 PM91 °FPartly sunny.9 mph67%29.74 "HgN/A
1:00 PM91 °FPartly sunny.10 mph63%29.77 "HgN/A
12:00 PM91 °FPartly sunny.7 mph59%29.77 "HgN/A
11:00 AM90 °FPartly sunny.8 mph67%29.80 "HgN/A
10:00 AM90 °FPartly sunny.7 mph67%29.83 "HgN/A
9:00 AM88 °FPartly sunny.7 mph70%29.83 "HgN/A
8:00 AM84 °FPartly sunny.7 mph74%29.83 "HgN/A
7:00 AM81 °FPartly sunny.6 mph84%29.80 "HgN/A
6:00 AM79 °FPartly sunny.3 mph89%29.80 "HgN/A
5:00 AM79 °FPassing clouds.5 mph89%29.80 "HgN/A
Weather by CustomWeather, © 2016

See weather overviewHow to use our weather pages